Time,TemperatureF,DewpointF,PressureIn,WindDirection,WindDirectionDegrees,WindSpeedMPH,WindSpeedGustMPH,Humidity,HourlyPrecipIn,Conditions,Clouds,dailyrainin,SoftwareType,DateUTC
2013-02-08 00:01:00,39.3,32.4,29.83,SSE,152,3.0,3.0,76,0.00,,,0.07,Wunderground v.1.15,2013-02-08 05:01:00,
2013-02-08 00:02:00,39.4,32.5,29.84,South,185,3.0,3.0,76,0.00,,,0.07,Wunderground v.1.15,2013-02-08 05:02:00,
2013-02-08 00:07:00,39.4,32.5,29.83,SSE,155,3.0,5.0,76,0.00,,,0.07,Wunderground v.1.15,2013-02-08 05:07:00,
2013-02-08 00:12:00,39.2,32.3,29.83,SSE,149,2.0,3.0,76,0.00,,,0.00,Wunderground v.1.15,2013-02-08 05:12:00,
2013-02-08 00:18:00,39.0,32.1,29.83,SSE,147,2.0,5.0,76,0.00,,,0.00,Wunderground v.1.15,2013-02-08 05:18:00,
2013-02-08 00:24:00,38.9,32.3,29.83,SSE,163,2.0,4.0,77,0.00,,,0.00,Wunderground v.1.15,2013-02-08 05:24:00,
2013-02-08 00:29:00,39.1,32.5,29.83,SE,140,3.0,5.0,77,0.00,,,0.00,Wunderground v.1.15,2013-02-08 05:29:00,
2013-02-08 00:34:00,39.2,32.6,29.82,South,173,3.0,4.0,77,0.00,,,0.00,Wunderground v.1.15,2013-02-08 05:34:00,
2013-02-08 00:39:00,39.4,32.8,29.82,SE,146,2.0,4.0,77,0.00,,,0.00,Wunderground v.1.15,2013-02-08 05:39:00,
2013-02-08 00:45:00,39.4,32.8,29.82,SE,132,2.0,4.0,77,0.00,,,0.00,Wunderground v.1.15,2013-02-08 05:45:00,
2013-02-08 00:50:00,39.7,33.1,29.82,SE,142,3.0,3.0,77,0.00,,,0.00,Wunderground v.1.15,2013-02-08 05:50:00,
2013-02-08 00:56:00,39.9,33.3,29.82,South,175,3.0,7.0,77,0.00,,,0.00,Wunderground v.1.15,2013-02-08 05:56:00,
2013-02-08 01:02:00,40.2,33.6,29.81,SE,144,3.0,4.0,77,0.00,,,0.00,Wunderground v.1.15,2013-02-08 06:02:00,
2013-02-08 01:07:00,40.4,33.8,29.81,SE,138,3.0,4.0,77,0.00,,,0.00,Wunderground v.1.15,2013-02-08 06:07:00,
2013-02-08 01:13:00,40.8,33.8,29.81,SSE,166,4.0,5.0,76,0.00,,,0.00,Wunderground v.1.15,2013-02-08 06:13:00,
2013-02-08 01:19:00,40.9,33.9,29.80,SE,142,4.0,6.0,76,0.00,,,0.00,Wunderground v.1.15,2013-02-08 06:19:00,
2013-02-08 01:24:00,41.1,34.1,29.80,SE,128,4.0,5.0,76,0.00,,,0.00,Wunderground v.1.15,2013-02-08 06:24:00,
2013-02-08 01:29:00,41.2,34.2,29.80,SSE,165,5.0,7.0,76,0.00,,,0.00,Wunderground v.1.15,2013-02-08 06:29:00,
2013-02-08 01:35:00,41.3,34.3,29.80,SSE,161,4.0,8.0,76,0.00,,,0.00,Wunderground v.1.15,2013-02-08 06:35:00,
2013-02-08 01:40:00,41.3,34.3,29.80,SE,135,4.0,6.0,76,0.00,,,0.00,Wunderground v.1.15,2013-02-08 06:40:00,
2013-02-08 01:46:00,41.4,34.1,29.79,SSE,159,4.0,6.0,75,0.00,,,0.00,Wunderground v.1.15,2013-02-08 06:46:00,
2013-02-08 01:51:00,41.5,34.2,29.79,SE,146,4.0,8.0,75,0.00,,,0.00,Wunderground v.1.15,2013-02-08 06:51:00,
2013-02-08 01:57:00,41.4,34.1,29.78,SSE,164,5.0,8.0,75,0.00,,,0.00,Wunderground v.1.15,2013-02-08 06:57:00,
2013-02-08 02:04:00,41.7,34.4,29.79,South,171,5.0,8.0,75,0.00,,,0.00,Wunderground v.1.15,2013-02-08 07:04:00,
2013-02-08 02:09:00,41.8,34.5,29.79,South,175,4.0,8.0,75,0.00,,,0.00,Wunderground v.1.15,2013-02-08 07:09:00,
2013-02-08 02:14:00,41.8,34.5,29.79,SSE,155,4.0,11.0,75,0.00,,,0.00,Wunderground v.1.15,2013-02-08 07:14:00,
2013-02-08 02:19:00,41.8,34.5,29.79,SSE,167,5.0,11.0,75,0.00,,,0.00,Wunderground v.1.15,2013-02-08 07:19:00,
2013-02-08 02:25:00,41.8,34.5,29.79,SSE,159,4.0,8.0,75,0.00,,,0.00,Wunderground v.1.15,2013-02-08 07:25:00,
2013-02-08 02:30:00,41.8,34.5,29.79,SSE,157,4.0,4.0,75,0.00,,,0.00,Wunderground v.1.15,2013-02-08 07:30:00,
2013-02-08 02:35:00,41.7,34.4,29.79,SSE,163,3.0,5.0,75,0.00,,,0.00,Wunderground v.1.15,2013-02-08 07:35:00,
2013-02-08 02:41:00,41.8,34.5,29.80,South,169,3.0,3.0,75,0.00,,,0.00,Wunderground v.1.15,2013-02-08 07:41:00,
2013-02-08 02:46:00,41.8,34.5,29.80,South,188,2.0,3.0,75,0.00,,,0.00,Wunderground v.1.15,2013-02-08 07:46:00,
2013-02-08 02:52:00,41.7,34.7,29.79,SSE,163,3.0,5.0,76,0.00,,,0.00,Wunderground v.1.15,2013-02-08 07:52:00,
2013-02-08 02:57:00,41.8,34.8,29.79,SE,130,3.0,6.0,76,0.00,,,0.00,Wunderground v.1.15,2013-02-08 07:57:00,
2013-02-08 03:04:00,41.7,34.7,29.79,SSE,159,2.0,3.0,76,0.00,,,0.00,Wunderground v.1.15,2013-02-08 08:04:00,
2013-02-08 03:09:00,41.7,34.7,29.78,South,191,2.0,3.0,76,0.00,,,0.00,Wunderground v.1.15,2013-02-08 08:09:00,
2013-02-08 03:15:00,41.7,35.0,29.78,South,178,2.0,4.0,77,0.00,,,0.00,Wunderground v.1.15,2013-02-08 08:15:00,
2013-02-08 03:20:00,41.7,35.3,29.78,SSE,159,2.0,3.0,78,0.00,,,0.00,Wunderground v.1.15,2013-02-08 08:20:00,
2013-02-08 03:26:00,41.6,35.2,29.78,South,184,2.0,3.0,78,0.00,,,0.01,Wunderground v.1.15,2013-02-08 08:26:00,
2013-02-08 03:31:00,41.5,35.5,29.78,SSE,163,1.0,1.0,79,0.00,,,0.01,Wunderground v.1.15,2013-02-08 08:31:00,
2013-02-08 03:37:00,41.2,35.5,29.77,SSE,157,1.0,3.0,80,0.00,,,0.01,Wunderground v.1.15,2013-02-08 08:37:00,
2013-02-08 03:42:00,41.1,35.7,29.77,South,191,1.0,1.0,81,0.00,,,0.01,Wunderground v.1.15,2013-02-08 08:42:00,
2013-02-08 03:49:00,41.0,36.2,29.77,SSW,200,2.0,5.0,83,0.00,,,0.02,Wunderground v.1.15,2013-02-08 08:49:00,
2013-02-08 03:54:00,40.9,36.4,29.77,SSW,199,1.0,4.0,84,0.00,,,0.02,Wunderground v.1.15,2013-02-08 08:54:00,
2013-02-08 03:59:00,40.7,36.5,29.77,South,185,1.0,4.0,85,0.00,,,0.02,Wunderground v.1.15,2013-02-08 08:59:00,
2013-02-08 04:05:00,40.5,36.6,29.77,South,188,1.0,3.0,86,0.05,,,0.03,Wunderground v.1.15,2013-02-08 09:05:00,
2013-02-08 04:11:00,40.2,36.6,29.77,South,173,0.0,0.0,87,0.05,,,0.03,Wunderground v.1.15,2013-02-08 09:11:00,
2013-02-08 04:16:00,40.1,36.8,29.77,South,178,0.0,2.0,88,0.04,,,0.04,Wunderground v.1.15,2013-02-08 09:16:00,
2013-02-08 04:21:00,40.0,36.7,29.77,SSW,193,1.0,2.0,88,0.04,,,0.04,Wunderground v.1.15,2013-02-08 09:21:00,
2013-02-08 04:27:00,39.9,36.9,29.78,South,175,1.0,2.0,89,0.04,,,0.04,Wunderground v.1.15,2013-02-08 09:27:00,
2013-02-08 04:32:00,39.8,36.8,29.78,SSW,207,0.0,1.0,89,0.00,,,0.04,Wunderground v.1.15,2013-02-08 09:32:00,
2013-02-08 04:39:00,39.8,37.1,29.78,SW,229,0.0,1.0,90,0.00,,,0.05,Wunderground v.1.15,2013-02-08 09:39:00,
2013-02-08 04:44:00,39.8,37.1,29.78,SW,229,0.0,0.0,90,0.15,,,0.07,Wunderground v.1.15,2013-02-08 09:44:00,
2013-02-08 04:49:00,39.7,37.3,29.78,SW,234,1.0,5.0,91,0.21,,,0.08,Wunderground v.1.15,2013-02-08 09:49:00,
2013-02-08 04:55:00,39.7,37.3,29.78,WSW,252,1.0,1.0,91,0.13,,,0.09,Wunderground v.1.15,2013-02-08 09:55:00,
2013-02-08 05:00:00,39.7,37.3,29.78,SSW,213,0.0,1.0,91,0.09,,,0.10,Wunderground v.1.15,2013-02-08 10:00:00,
2013-02-08 05:06:00,39.6,37.2,29.79,SSW,207,1.0,2.0,91,0.07,,,0.10,Wunderground v.1.15,2013-02-08 10:06:00,
2013-02-08 05:12:00,39.4,37.3,29.79,SSW,208,0.0,0.0,92,0.04,,,0.10,Wunderground v.1.15,2013-02-08 10:12:00,
2013-02-08 05:17:00,39.3,37.2,29.79,SSW,208,0.0,0.0,92,0.04,,,0.11,Wunderground v.1.15,2013-02-08 10:17:00,
2013-02-08 05:24:00,39.2,37.1,29.79,SW,234,0.0,0.0,92,0.04,,,0.11,Wunderground v.1.15,2013-02-08 10:24:00,
2013-02-08 05:29:00,39.0,36.9,29.80,WSW,237,0.0,0.0,92,0.04,,,0.12,Wunderground v.1.15,2013-02-08 10:29:00,
2013-02-08 05:34:00,39.0,36.9,29.80,West,276,0.0,3.0,92,0.04,,,0.12,Wunderground v.1.15,2013-02-08 10:34:00,
2013-02-08 05:39:00,39.0,37.1,29.80,NW,307,1.0,4.0,93,0.04,,,0.12,Wunderground v.1.15,2013-02-08 10:39:00,
2013-02-08 05:44:00,39.0,37.1,29.80,WNW,297,2.0,4.0,93,0.06,,,0.13,Wunderground v.1.15,2013-02-08 10:44:00,
2013-02-08 05:50:00,38.9,37.0,29.80,NW,304,3.0,5.0,93,0.05,,,0.13,Wunderground v.1.15,2013-02-08 10:50:00,
2013-02-08 05:55:00,38.7,36.9,29.81,NW,320,3.0,7.0,93,0.05,,,0.14,Wunderground v.1.15,2013-02-08 10:55:00,
2013-02-08 06:00:00,38.4,36.3,29.81,WNW,296,3.0,3.0,92,0.05,,,0.14,Wunderground v.1.15,2013-02-08 11:00:00,
2013-02-08 06:06:00,38.2,36.1,29.81,NW,306,4.0,7.0,92,0.04,,,0.14,Wunderground v.1.15,2013-02-08 11:06:00,
2013-02-08 06:11:00,38.0,35.9,29.81,WNW,298,3.0,3.0,92,0.00,,,0.14,Wunderground v.1.15,2013-02-08 11:11:00,
2013-02-08 06:17:00,37.8,35.7,29.81,WNW,290,2.0,4.0,92,0.00,,,0.14,Wunderground v.1.15,2013-02-08 11:17:00,
2013-02-08 06:22:00,37.4,35.3,29.82,WNW,303,2.0,2.0,92,0.00,,,0.14,Wunderground v.1.15,2013-02-08 11:22:00,
2013-02-08 06:29:00,37.0,34.9,29.82,WNW,296,3.0,6.0,92,0.00,,,0.14,Wunderground v.1.15,2013-02-08 11:29:00,
2013-02-08 06:34:00,36.8,34.7,29.82,NW,306,3.0,6.0,92,0.00,,,0.14,Wunderground v.1.15,2013-02-08 11:34:00,
2013-02-08 06:39:00,36.7,34.6,29.82,WNW,303,3.0,6.0,92,0.00,,,0.14,Wunderground v.1.15,2013-02-08 11:39:00,
2013-02-08 06:44:00,36.6,34.5,29.83,NW,311,4.0,8.0,92,0.00,,,0.14,Wunderground v.1.15,2013-02-08 11:44:00,
2013-02-08 06:50:00,36.4,34.3,29.83,WNW,299,5.0,6.0,92,0.00,,,0.14,Wunderground v.1.15,2013-02-08 11:50:00,
2013-02-08 06:56:00,36.2,34.1,29.84,NW,304,5.0,6.0,92,0.00,,,0.14,Wunderground v.1.15,2013-02-08 11:56:00,
2013-02-08 07:01:00,36.1,34.3,29.84,NW,304,4.0,6.0,93,0.00,,,0.14,Wunderground v.1.15,2013-02-08 12:01:00,
2013-02-08 07:06:00,35.9,33.8,29.84,WNW,290,3.0,6.0,92,0.00,,,0.14,Wunderground v.1.15,2013-02-08 12:06:00,
2013-02-08 07:12:00,35.6,33.5,29.84,NW,309,6.0,10.0,92,0.00,,,0.14,Wunderground v.1.15,2013-02-08 12:12:00,
2013-02-08 07:17:00,35.4,33.3,29.85,WNW,286,8.0,12.0,92,0.00,,,0.14,Wunderground v.1.15,2013-02-08 12:17:00,
2013-02-08 07:23:00,35.2,33.1,29.85,NW,304,8.0,8.0,92,0.00,,,0.14,Wunderground v.1.15,2013-02-08 12:23:00,
2013-02-08 07:29:00,35.1,33.0,29.86,WNW,292,6.0,10.0,92,0.00,,,0.14,Wunderground v.1.15,2013-02-08 12:29:00,
2013-02-08 07:34:00,34.8,32.7,29.86,NW,306,6.0,8.0,92,0.00,,,0.14,Wunderground v.1.15,2013-02-08 12:34:00,
2013-02-08 07:39:00,34.6,32.5,29.86,NW,304,6.0,8.0,92,0.00,,,0.14,Wunderground v.1.15,2013-02-08 12:39:00,
2013-02-08 07:45:00,34.4,32.3,29.87,WNW,291,5.0,7.0,92,0.00,,,0.14,Wunderground v.1.15,2013-02-08 12:45:00,
2013-02-08 07:50:00,34.4,32.3,29.87,NW,304,6.0,6.0,92,0.00,,,0.14,Wunderground v.1.15,2013-02-08 12:50:00,
2013-02-08 07:56:00,34.4,32.3,29.88,NW,306,6.0,7.0,92,0.00,,,0.14,Wunderground v.1.15,2013-02-08 12:56:00,
2013-02-08 08:01:00,34.3,32.2,29.88,NW,304,5.0,5.0,92,0.00,,,0.14,Wunderground v.1.15,2013-02-08 13:01:00,
2013-02-08 08:06:00,34.3,32.2,29.88,NW,309,5.0,9.0,92,0.00,,,0.14,Wunderground v.1.15,2013-02-08 13:06:00,
2013-02-08 08:12:00,34.3,32.2,29.88,NW,309,6.0,6.0,92,0.00,,,0.14,Wunderground v.1.15,2013-02-08 13:12:00,
2013-02-08 08:17:00,34.3,32.2,29.88,NW,313,5.0,6.0,92,0.00,,,0.14,Wunderground v.1.15,2013-02-08 13:17:00,
2013-02-08 08:23:00,34.2,32.1,29.88,NW,304,6.0,7.0,92,0.00,,,0.14,Wunderground v.1.15,2013-02-08 13:23:00,
2013-02-08 08:29:00,34.3,32.2,29.89,NW,304,6.0,9.0,92,0.00,,,0.14,Wunderground v.1.15,2013-02-08 13:29:00,
2013-02-08 08:34:00,34.2,32.1,29.89,WNW,296,5.0,7.0,92,0.00,,,0.14,Wunderground v.1.15,2013-02-08 13:34:00,
2013-02-08 08:39:00,34.3,32.2,29.89,WNW,291,7.0,7.0,92,0.00,,,0.14,Wunderground v.1.15,2013-02-08 13:39:00,
2013-02-08 08:45:00,34.3,32.2,29.90,NW,321,7.0,12.0,92,0.00,,,0.14,Wunderground v.1.15,2013-02-08 13:45:00,
2013-02-08 08:50:00,34.2,32.1,29.90,NW,307,7.0,7.0,92,0.00,,,0.14,Wunderground v.1.15,2013-02-08 13:50:00,
2013-02-08 08:56:00,34.2,31.8,29.90,WNW,302,7.0,11.0,91,0.00,,,0.14,Wunderground v.1.15,2013-02-08 13:56:00,
2013-02-08 09:01:00,34.2,31.8,29.90,NW,311,8.0,8.0,91,0.00,,,0.14,Wunderground v.1.15,2013-02-08 14:01:00,
2013-02-08 09:07:00,34.2,31.6,29.91,NW,307,8.0,10.0,90,0.00,,,0.14,Wunderground v.1.15,2013-02-08 14:07:00,
2013-02-08 09:12:00,34.3,31.7,29.91,NW,319,7.0,9.0,90,0.00,,,0.14,Wunderground v.1.15,2013-02-08 14:12:00,
2013-02-08 09:17:00,34.2,31.6,29.91,NW,314,6.0,11.0,90,0.00,,,0.14,Wunderground v.1.15,2013-02-08 14:17:00,
2013-02-08 09:24:00,34.2,31.6,29.92,WNW,297,6.0,11.0,90,0.00,,,0.14,Wunderground v.1.15,2013-02-08 14:24:00,
2013-02-08 09:29:00,34.1,31.2,29.92,WNW,301,9.0,11.0,89,0.00,,,0.14,Wunderground v.1.15,2013-02-08 14:29:00,
2013-02-08 09:34:00,33.9,30.7,29.92,NNW,333,10.0,15.0,88,0.00,,,0.14,Wunderground v.1.15,2013-02-08 14:34:00,
2013-02-08 09:40:00,33.8,30.3,29.93,NW,308,9.0,9.0,87,0.00,,,0.14,Wunderground v.1.15,2013-02-08 14:40:00,
2013-02-08 09:45:00,33.6,30.1,29.93,NW,310,10.0,13.0,87,0.00,,,0.14,Wunderground v.1.15,2013-02-08 14:45:00,
2013-02-08 09:51:00,33.4,29.7,29.93,WNW,299,11.0,11.0,86,0.00,,,0.14,Wunderground v.1.15,2013-02-08 14:51:00,
2013-02-08 09:56:00,33.3,29.6,29.94,NW,313,11.0,14.0,86,0.00,,,0.14,Wunderground v.1.15,2013-02-08 14:56:00,
2013-02-08 10:01:00,33.2,29.8,29.94,NW,311,10.0,12.0,87,0.00,,,0.14,Wunderground v.1.15,2013-02-08 15:01:00,
2013-02-08 10:07:00,33.2,29.5,29.94,NW,317,9.0,18.0,86,0.00,,,0.14,Wunderground v.1.15,2013-02-08 15:07:00,
2013-02-08 10:12:00,33.1,29.4,29.95,NW,308,10.0,11.0,86,0.00,,,0.14,Wunderground v.1.15,2013-02-08 15:12:00,
2013-02-08 10:17:00,33.1,29.4,29.95,NW,315,10.0,12.0,86,0.00,,,0.14,Wunderground v.1.15,2013-02-08 15:17:00,
2013-02-08 10:24:00,33.0,29.6,29.95,NW,317,8.0,9.0,87,0.00,,,0.14,Wunderground v.1.15,2013-02-08 15:24:00,
2013-02-08 10:29:00,33.0,29.6,29.96,NW,313,6.0,9.0,87,0.00,,,0.14,Wunderground v.1.15,2013-02-08 15:29:00,
2013-02-08 10:34:00,32.9,29.5,29.96,NW,320,7.0,13.0,87,0.00,,,0.14,Wunderground v.1.15,2013-02-08 15:34:00,
2013-02-08 10:39:00,32.9,29.2,29.96,WNW,302,9.0,13.0,86,0.00,,,0.14,Wunderground v.1.15,2013-02-08 15:39:00,
2013-02-08 10:45:00,33.0,29.6,29.97,WNW,293,8.0,9.0,87,0.00,,,0.14,Wunderground v.1.15,2013-02-08 15:45:00,
2013-02-08 10:50:00,32.9,28.9,29.97,NW,306,8.0,8.0,85,0.00,,,0.14,Wunderground v.1.15,2013-02-08 15:50:00,
2013-02-08 10:56:00,32.7,28.4,29.98,WNW,301,9.0,12.0,84,0.00,,,0.14,Wunderground v.1.15,2013-02-08 15:56:00,
2013-02-08 11:02:00,32.6,28.3,29.98,WNW,302,9.0,9.0,84,0.00,,,0.14,Wunderground v.1.15,2013-02-08 16:02:00,
2013-02-08 11:09:00,32.7,28.4,29.99,NW,304,9.0,10.0,84,0.00,,,0.14,Wunderground v.1.15,2013-02-08 16:09:00,
2013-02-08 11:14:00,32.6,28.3,29.99,WNW,288,8.0,10.0,84,0.00,,,0.14,Wunderground v.1.15,2013-02-08 16:14:00,
2013-02-08 11:20:00,32.5,27.9,30.00,NW,319,10.0,10.0,83,0.00,,,0.14,Wunderground v.1.15,2013-02-08 16:20:00,
2013-02-08 11:26:00,32.5,27.9,30.00,NNW,328,11.0,13.0,83,0.00,,,0.14,Wunderground v.1.15,2013-02-08 16:26:00,
2013-02-08 11:31:00,32.4,27.5,30.00,NW,309,11.0,12.0,82,0.00,,,0.14,Wunderground v.1.15,2013-02-08 16:31:00,
2013-02-08 11:37:00,32.5,27.9,30.01,NW,306,9.0,12.0,83,0.00,,,0.14,Wunderground v.1.15,2013-02-08 16:37:00,
2013-02-08 11:42:00,32.5,27.9,30.01,WNW,296,8.0,9.0,83,0.00,,,0.14,Wunderground v.1.15,2013-02-08 16:42:00,
2013-02-08 11:49:00,32.4,27.8,30.01,WNW,299,9.0,14.0,83,0.00,,,0.14,Wunderground v.1.15,2013-02-08 16:49:00,
2013-02-08 11:54:00,32.3,27.7,30.01,NW,325,9.0,13.0,83,0.00,,,0.14,Wunderground v.1.15,2013-02-08 16:54:00,
2013-02-08 11:59:00,32.3,28.0,30.01,NW,306,9.0,13.0,84,0.00,,,0.14,Wunderground v.1.15,2013-02-08 16:59:00,
2013-02-08 12:05:00,32.2,27.6,30.02,NNW,333,10.0,16.0,83,0.00,,,0.14,Wunderground v.1.15,2013-02-08 17:05:00,
2013-02-08 12:11:00,32.2,27.6,30.02,NW,317,10.0,11.0,83,0.00,,,0.14,Wunderground v.1.15,2013-02-08 17:11:00,
2013-02-08 12:17:00,32.1,27.2,30.02,NW,324,11.0,18.0,82,0.00,,,0.14,Wunderground v.1.15,2013-02-08 17:17:00,
2013-02-08 12:22:00,32.1,27.2,30.02,NW,320,12.0,15.0,82,0.00,,,0.14,Wunderground v.1.15,2013-02-08 17:22:00,
2013-02-08 12:29:00,32.0,27.1,30.03,NW,311,12.0,15.0,82,0.00,,,0.14,Wunderground v.1.15,2013-02-08 17:29:00,
2013-02-08 12:34:00,32.0,27.4,30.03,NW,313,11.0,12.0,83,0.00,,,0.14,Wunderground v.1.15,2013-02-08 17:34:00,
2013-02-08 12:39:00,31.9,27.3,30.03,NW,317,10.0,14.0,83,0.00,,,0.14,Wunderground v.1.15,2013-02-08 17:39:00,
2013-02-08 12:45:00,31.7,27.1,30.03,NW,311,12.0,13.0,83,0.00,,,0.14,Wunderground v.1.15,2013-02-08 17:45:00,
2013-02-08 12:50:00,31.6,27.0,30.03,NW,322,12.0,12.0,83,0.00,,,0.14,Wunderground v.1.15,2013-02-08 17:50:00,
2013-02-08 12:56:00,31.7,26.8,30.03,NW,312,10.0,13.0,82,0.00,,,0.14,Wunderground v.1.15,2013-02-08 17:56:00,
2013-02-08 13:01:00,31.7,27.1,30.04,NW,310,10.0,13.0,83,0.00,,,0.14,Wunderground v.1.15,2013-02-08 18:01:00,
2013-02-08 13:07:00,31.7,27.1,30.04,WNW,303,10.0,13.0,83,0.00,,,0.14,Wunderground v.1.15,2013-02-08 18:07:00,
2013-02-08 13:14:00,31.7,27.1,30.05,WNW,303,9.0,10.0,83,0.00,,,0.14,Wunderground v.1.15,2013-02-08 18:14:00,
2013-02-08 13:19:00,31.7,27.1,30.05,NW,318,10.0,13.0,83,0.00,,,0.14,Wunderground v.1.15,2013-02-08 18:19:00,
2013-02-08 13:24:00,31.8,26.9,30.05,North,349,11.0,16.0,82,0.00,,,0.14,Wunderground v.1.15,2013-02-08 18:24:00,
2013-02-08 13:30:00,31.8,26.9,30.05,NW,313,11.0,11.0,82,0.00,,,0.14,Wunderground v.1.15,2013-02-08 18:30:00,
2013-02-08 13:35:00,31.7,26.8,30.05,NW,309,11.0,15.0,82,0.00,,,0.14,Wunderground v.1.15,2013-02-08 18:35:00,
2013-02-08 13:40:00,31.6,27.0,30.05,NW,317,10.0,13.0,83,0.00,,,0.14,Wunderground v.1.15,2013-02-08 18:40:00,
2013-02-08 13:46:00,31.4,26.8,30.05,NW,326,10.0,13.0,83,0.00,,,0.14,Wunderground v.1.15,2013-02-08 18:46:00,
2013-02-08 13:52:00,31.4,26.8,30.06,NW,316,9.0,10.0,83,0.00,,,0.14,Wunderground v.1.15,2013-02-08 18:52:00,
2013-02-08 13:57:00,31.3,26.7,30.06,NW,317,10.0,13.0,83,0.00,,,0.14,Wunderground v.1.15,2013-02-08 18:57:00,
2013-02-08 14:04:00,31.1,26.5,30.07,NW,320,12.0,13.0,83,0.00,,,0.14,Wunderground v.1.15,2013-02-08 19:04:00,
2013-02-08 14:09:00,31.0,26.4,30.07,NW,315,10.0,13.0,83,0.00,,,0.14,Wunderground v.1.15,2013-02-08 19:09:00,
2013-02-08 14:14:00,31.1,26.5,30.07,NW,309,10.0,11.0,83,0.00,,,0.14,Wunderground v.1.15,2013-02-08 19:14:00,
2013-02-08 14:20:00,31.2,26.6,30.07,NW,309,10.0,10.0,83,0.00,,,0.14,Wunderground v.1.15,2013-02-08 19:20:00,
2013-02-08 14:25:00,31.2,26.3,30.07,NW,316,10.0,12.0,82,0.00,,,0.14,Wunderground v.1.15,2013-02-08 19:25:00,
2013-02-08 14:30:00,31.3,26.4,30.07,NNW,329,9.0,9.0,82,0.00,,,0.14,Wunderground v.1.15,2013-02-08 19:30:00,
2013-02-08 14:35:00,31.3,26.7,30.07,NW,310,8.0,12.0,83,0.00,,,0.14,Wunderground v.1.15,2013-02-08 19:35:00,
2013-02-08 14:41:00,31.2,26.3,30.07,WNW,302,9.0,13.0,82,0.00,,,0.14,Wunderground v.1.15,2013-02-08 19:41:00,
2013-02-08 14:46:00,31.1,26.2,30.07,NNW,339,10.0,13.0,82,0.00,,,0.14,Wunderground v.1.15,2013-02-08 19:46:00,
2013-02-08 14:52:00,31.1,26.0,30.08,NW,321,10.0,12.0,81,0.00,,,0.14,Wunderground v.1.15,2013-02-08 19:52:00,
2013-02-08 14:57:00,31.3,26.4,30.08,NW,324,8.0,12.0,82,0.00,,,0.14,Wunderground v.1.15,2013-02-08 19:57:00,
2013-02-08 15:04:00,31.2,26.0,30.08,NW,315,9.0,13.0,81,0.00,,,0.14,Wunderground v.1.15,2013-02-08 20:04:00,
2013-02-08 15:09:00,31.2,26.0,30.08,NW,316,11.0,13.0,81,0.00,,,0.14,Wunderground v.1.15,2013-02-08 20:09:00,
2013-02-08 15:14:00,31.3,26.1,30.08,NW,306,10.0,13.0,81,0.00,,,0.14,Wunderground v.1.15,2013-02-08 20:14:00,
2013-02-08 15:20:00,31.4,26.2,30.09,NW,314,8.0,12.0,81,0.00,,,0.14,Wunderground v.1.15,2013-02-08 20:20:00,
2013-02-08 15:25:00,31.2,25.7,30.09,NW,313,10.0,15.0,80,0.00,,,0.14,Wunderground v.1.15,2013-02-08 20:25:00,
2013-02-08 15:30:00,31.1,26.0,30.10,NNW,348,12.0,12.0,81,0.00,,,0.14,Wunderground v.1.15,2013-02-08 20:30:00,
2013-02-08 15:36:00,31.1,25.7,30.10,NW,306,11.0,13.0,80,0.00,,,0.14,Wunderground v.1.15,2013-02-08 20:36:00,
2013-02-08 15:41:00,31.0,25.9,30.11,NNW,328,10.0,12.0,81,0.00,,,0.14,Wunderground v.1.15,2013-02-08 20:41:00,
2013-02-08 15:46:00,30.9,25.5,30.11,NW,323,8.0,12.0,80,0.00,,,0.14,Wunderground v.1.15,2013-02-08 20:46:00,
2013-02-08 15:52:00,30.7,25.6,30.11,NW,323,8.0,17.0,81,0.00,,,0.14,Wunderground v.1.15,2013-02-08 20:52:00,
2013-02-08 15:57:00,30.6,25.5,30.12,NW,323,8.0,17.0,81,0.00,,,0.14,Wunderground v.1.15,2013-02-08 20:57:00,
2013-02-08 16:04:00,30.5,25.7,30.12,NW,314,9.0,12.0,82,0.00,,,0.14,Wunderground v.1.15,2013-02-08 21:04:00,
2013-02-08 16:09:00,30.6,25.8,30.12,NW,326,10.0,12.0,82,0.00,,,0.14,Wunderground v.1.15,2013-02-08 21:09:00,
2013-02-08 16:14:00,30.7,25.6,30.12,NW,311,9.0,10.0,81,0.00,,,0.14,Wunderground v.1.15,2013-02-08 21:14:00,
2013-02-08 16:20:00,30.6,25.2,30.12,NNW,336,10.0,10.0,80,0.00,,,0.14,Wunderground v.1.15,2013-02-08 21:20:00,
2013-02-08 16:25:00,30.6,24.9,30.12,NNW,333,11.0,15.0,79,0.00,,,0.14,Wunderground v.1.15,2013-02-08 21:25:00,
2013-02-08 16:31:00,30.6,24.9,30.13,NNW,327,9.0,10.0,79,0.00,,,0.14,Wunderground v.1.15,2013-02-08 21:31:00,
2013-02-08 16:37:00,30.5,25.1,30.13,NW,322,8.0,15.0,80,0.00,,,0.14,Wunderground v.1.15,2013-02-08 21:37:00,
2013-02-08 16:42:00,30.4,25.0,30.13,NW,321,9.0,11.0,80,0.00,,,0.14,Wunderground v.1.15,2013-02-08 21:42:00,
2013-02-08 16:48:00,30.4,25.3,30.13,NNW,327,9.0,14.0,81,0.00,,,0.14,Wunderground v.1.15,2013-02-08 21:48:00,
2013-02-08 16:54:00,30.3,25.2,30.14,NNW,329,8.0,11.0,81,0.00,,,0.14,Wunderground v.1.15,2013-02-08 21:54:00,
2013-02-08 16:59:00,30.1,25.0,30.14,NW,316,9.0,11.0,81,0.00,,,0.14,Wunderground v.1.15,2013-02-08 21:59:00,
2013-02-08 17:05:00,30.0,24.6,30.15,NNW,339,8.0,9.0,80,0.00,,,0.14,Wunderground v.1.15,2013-02-08 22:05:00,
2013-02-08 17:10:00,29.9,24.8,30.15,NW,323,8.0,8.0,81,0.00,,,0.14,Wunderground v.1.15,2013-02-08 22:10:00,
2013-02-08 17:16:00,29.8,24.7,30.15,WNW,303,8.0,8.0,81,0.00,,,0.14,Wunderground v.1.15,2013-02-08 22:16:00,
2013-02-08 17:22:00,29.9,25.1,30.15,NW,317,6.0,8.0,82,0.00,,,0.14,Wunderground v.1.15,2013-02-08 22:22:00,
2013-02-08 17:27:00,29.9,25.1,30.16,NW,314,7.0,13.0,82,0.00,,,0.14,Wunderground v.1.15,2013-02-08 22:27:00,
2013-02-08 17:34:00,29.8,24.7,30.16,NW,305,11.0,13.0,81,0.00,,,0.14,Wunderground v.1.15,2013-02-08 22:34:00,
2013-02-08 17:39:00,29.6,24.2,30.17,NNW,330,12.0,13.0,80,0.00,,,0.14,Wunderground v.1.15,2013-02-08 22:39:00,
2013-02-08 17:44:00,29.5,24.1,30.17,NW,325,11.0,13.0,80,0.00,,,0.14,Wunderground v.1.15,2013-02-08 22:44:00,
2013-02-08 17:50:00,29.5,24.1,30.18,NW,319,9.0,9.0,80,0.00,,,0.14,Wunderground v.1.15,2013-02-08 22:50:00,
2013-02-08 17:55:00,29.4,23.7,30.18,NW,320,9.0,12.0,79,0.00,,,0.14,Wunderground v.1.15,2013-02-08 22:55:00,
2013-02-08 18:00:00,29.3,23.3,30.18,NW,317,10.0,13.0,78,0.00,,,0.14,Wunderground v.1.15,2013-02-08 23:00:00,
2013-02-08 18:06:00,29.2,23.5,30.19,NW,315,9.0,13.0,79,0.00,,,0.14,Wunderground v.1.15,2013-02-08 23:06:00,
2013-02-08 18:11:00,29.0,23.6,30.19,NW,320,10.0,16.0,80,0.00,,,0.14,Wunderground v.1.15,2013-02-08 23:11:00,
2013-02-08 18:16:00,28.9,23.5,30.20,NW,317,11.0,19.0,80,0.00,,,0.14,Wunderground v.1.15,2013-02-08 23:16:00,
2013-02-08 18:22:00,28.7,23.3,30.20,NNW,328,11.0,11.0,80,0.00,,,0.14,Wunderground v.1.15,2013-02-08 23:22:00,
2013-02-08 18:27:00,28.6,22.9,30.21,NW,318,10.0,12.0,79,0.00,,,0.14,Wunderground v.1.15,2013-02-08 23:27:00,
2013-02-08 18:34:00,28.5,22.5,30.21,NNW,333,10.0,15.0,78,0.00,,,0.14,Wunderground v.1.15,2013-02-08 23:34:00,
2013-02-08 18:39:00,28.4,22.4,30.21,NW,325,9.0,15.0,78,0.00,,,0.14,Wunderground v.1.15,2013-02-08 23:39:00,
2013-02-08 18:44:00,28.4,22.4,30.22,NNW,345,8.0,10.0,78,0.00,,,0.14,Wunderground v.1.15,2013-02-08 23:44:00,
2013-02-08 18:49:00,28.4,22.7,30.22,NW,308,8.0,10.0,79,0.00,,,0.14,Wunderground v.1.15,2013-02-08 23:49:00,
2013-02-08 18:55:00,28.3,22.6,30.22,NW,317,6.0,7.0,79,0.00,,,0.14,Wunderground v.1.15,2013-02-08 23:55:00,
2013-02-08 19:00:00,28.3,22.9,30.23,NNW,348,6.0,6.0,80,0.00,,,0.14,Wunderground v.1.15,2013-02-09 00:00:00,
2013-02-08 19:06:00,28.3,22.6,30.23,North,355,7.0,7.0,79,0.00,,,0.14,Wunderground v.1.15,2013-02-09 00:06:00,
2013-02-08 19:11:00,28.4,23.3,30.23,NW,324,7.0,7.0,81,0.00,,,0.14,Wunderground v.1.15,2013-02-09 00:11:00,
2013-02-08 19:16:00,28.4,23.0,30.23,NW,313,8.0,14.0,80,0.00,,,0.14,Wunderground v.1.15,2013-02-09 00:16:00,
2013-02-08 19:22:00,28.3,23.2,30.24,NW,309,9.0,9.0,81,0.00,,,0.14,Wunderground v.1.15,2013-02-09 00:22:00,
2013-02-08 19:27:00,28.2,22.8,30.24,NW,319,10.0,14.0,80,0.00,,,0.14,Wunderground v.1.15,2013-02-09 00:27:00,
2013-02-08 19:34:00,28.1,22.7,30.25,NW,308,10.0,10.0,80,0.00,,,0.14,Wunderground v.1.15,2013-02-09 00:34:00,
2013-02-08 19:39:00,28.0,22.3,30.25,NW,320,9.0,12.0,79,0.00,,,0.14,Wunderground v.1.15,2013-02-09 00:39:00,
2013-02-08 19:44:00,27.8,21.8,30.25,North,355,9.0,13.0,78,0.00,,,0.14,Wunderground v.1.15,2013-02-09 00:44:00,
2013-02-08 19:49:00,27.6,21.3,30.25,NW,317,10.0,17.0,77,0.00,,,0.14,Wunderground v.1.15,2013-02-09 00:49:00,
2013-02-08 19:54:00,27.5,21.5,30.26,NW,321,9.0,10.0,78,0.00,,,0.14,Wunderground v.1.15,2013-02-09 00:54:00,
2013-02-08 20:00:00,27.5,21.8,30.26,WNW,298,6.0,9.0,79,0.00,,,0.14,Wunderground v.1.15,2013-02-09 01:00:00,
2013-02-08 20:06:00,27.4,21.7,30.26,NW,319,6.0,9.0,79,0.00,,,0.14,Wunderground v.1.15,2013-02-09 01:06:00,
2013-02-08 20:11:00,27.4,21.7,30.27,WNW,303,6.0,6.0,79,0.00,,,0.14,Wunderground v.1.15,2013-02-09 01:11:00,
2013-02-08 20:17:00,27.4,21.7,30.27,NW,311,5.0,6.0,79,0.00,,,0.14,Wunderground v.1.15,2013-02-09 01:17:00,
2013-02-08 20:24:00,27.3,21.3,30.27,NW,318,6.0,12.0,78,0.00,,,0.14,Wunderground v.1.15,2013-02-09 01:24:00,
2013-02-08 20:29:00,27.2,21.2,30.28,NNW,344,7.0,12.0,78,0.00,,,0.14,Wunderground v.1.15,2013-02-09 01:29:00,
2013-02-08 20:34:00,27.2,21.5,30.28,NNW,340,7.0,8.0,79,0.00,,,0.14,Wunderground v.1.15,2013-02-09 01:34:00,
2013-02-08 20:39:00,27.2,21.5,30.28,NW,317,6.0,10.0,79,0.00,,,0.14,Wunderground v.1.15,2013-02-09 01:39:00,
2013-02-08 20:45:00,27.2,21.5,30.28,NW,326,5.0,5.0,79,0.00,,,0.14,Wunderground v.1.15,2013-02-09 01:45:00,
2013-02-08 20:50:00,27.2,21.5,30.28,NW,311,5.0,6.0,79,0.00,,,0.14,Wunderground v.1.15,2013-02-09 01:50:00,
2013-02-08 20:55:00,27.3,21.6,30.28,NNW,334,6.0,12.0,79,0.00,,,0.14,Wunderground v.1.15,2013-02-09 01:55:00,
2013-02-08 21:00:00,27.3,21.3,30.29,NNW,348,8.0,8.0,78,0.00,,,0.14,Wunderground v.1.15,2013-02-09 02:00:00,
2013-02-08 21:06:00,27.3,20.7,30.29,North,5,8.0,11.0,76,0.00,,,0.14,Wunderground v.1.15,2013-02-09 02:06:00,
2013-02-08 21:12:00,27.3,21.0,30.29,NNW,346,8.0,8.0,77,0.00,,,0.14,Wunderground v.1.15,2013-02-09 02:12:00,
2013-02-08 21:17:00,27.3,21.0,30.29,NW,312,7.0,8.0,77,0.00,,,0.14,Wunderground v.1.15,2013-02-09 02:17:00,
2013-02-08 21:24:00,27.3,21.0,30.29,North,355,6.0,7.0,77,0.00,,,0.14,Wunderground v.1.15,2013-02-09 02:24:00,
2013-02-08 21:29:00,27.3,21.0,30.30,NNW,333,6.0,11.0,77,0.00,,,0.14,Wunderground v.1.15,2013-02-09 02:29:00,
2013-02-08 21:34:00,27.3,21.0,30.30,NNW,328,7.0,8.0,77,0.00,,,0.14,Wunderground v.1.15,2013-02-09 02:34:00,
2013-02-08 21:39:00,27.3,21.0,30.30,NNW,344,7.0,8.0,77,0.00,,,0.14,Wunderground v.1.15,2013-02-09 02:39:00,
2013-02-08 21:45:00,27.3,21.0,30.30,NNW,329,6.0,7.0,77,0.00,,,0.14,Wunderground v.1.15,2013-02-09 02:45:00,
2013-02-08 21:51:00,27.3,21.3,30.30,NW,320,6.0,6.0,78,0.00,,,0.14,Wunderground v.1.15,2013-02-09 02:51:00,
2013-02-08 21:56:00,27.3,21.0,30.30,North,351,6.0,10.0,77,0.00,,,0.14,Wunderground v.1.15,2013-02-09 02:56:00,
2013-02-08 22:02:00,27.3,21.3,30.30,NW,319,5.0,5.0,78,0.00,,,0.14,Wunderground v.1.15,2013-02-09 03:02:00,
2013-02-08 22:09:00,27.3,20.4,30.31,NW,310,5.0,11.0,75,0.00,,,0.14,Wunderground v.1.15,2013-02-09 03:09:00,
2013-02-08 22:14:00,27.2,20.3,30.31,NW,319,7.0,8.0,75,0.00,,,0.14,Wunderground v.1.15,2013-02-09 03:14:00,
2013-02-08 22:19:00,27.3,20.4,30.31,NNW,334,7.0,9.0,75,0.00,,,0.14,Wunderground v.1.15,2013-02-09 03:19:00,
2013-02-08 22:25:00,27.3,20.4,30.31,NNW,335,6.0,7.0,75,0.00,,,0.14,Wunderground v.1.15,2013-02-09 03:25:00,
2013-02-08 22:31:00,27.3,20.7,30.31,NW,308,5.0,5.0,76,0.00,,,0.14,Wunderground v.1.15,2013-02-09 03:31:00,
2013-02-08 22:36:00,27.3,20.7,30.31,NW,325,5.0,8.0,76,0.00,,,0.14,Wunderground v.1.15,2013-02-09 03:36:00,
2013-02-08 22:42:00,27.3,20.4,30.31,NNW,327,6.0,9.0,75,0.00,,,0.14,Wunderground v.1.15,2013-02-09 03:42:00,
2013-02-08 22:47:00,27.3,20.7,30.31,NW,323,6.0,9.0,76,0.00,,,0.14,Wunderground v.1.15,2013-02-09 03:47:00,
2013-02-08 22:54:00,27.1,20.5,30.31,NNW,330,6.0,7.0,76,0.00,,,0.14,Wunderground v.1.15,2013-02-09 03:54:00,
2013-02-08 22:59:00,26.8,20.2,30.31,NW,325,4.0,7.0,76,0.00,,,0.14,Wunderground v.1.15,2013-02-09 03:59:00,
2013-02-08 23:05:00,26.6,20.1,30.31,NW,323,5.0,6.0,76,0.00,,,0.14,Wunderground v.1.15,2013-02-09 04:05:00,
2013-02-08 23:11:00,26.3,20.1,30.31,NW,323,5.0,7.0,77,0.00,,,0.14,Wunderground v.1.15,2013-02-09 04:11:00,
2013-02-08 23:16:00,26.1,19.9,30.31,NW,323,5.0,7.0,77,0.00,,,0.14,Wunderground v.1.15,2013-02-09 04:16:00,
2013-02-08 23:22:00,25.9,19.7,30.31,NW,323,5.0,5.0,77,0.00,,,0.14,Wunderground v.1.15,2013-02-09 04:22:00,
2013-02-08 23:29:00,25.6,19.7,30.32,NW,322,4.0,5.0,78,0.00,,,0.14,Wunderground v.1.15,2013-02-09 04:29:00,
2013-02-08 23:34:00,25.3,19.7,30.32,NW,319,4.0,4.0,79,0.00,,,0.14,Wunderground v.1.15,2013-02-09 04:34:00,
2013-02-08 23:39:00,25.1,19.5,30.32,NW,320,3.0,5.0,79,0.00,,,0.14,Wunderground v.1.15,2013-02-09 04:39:00,
2013-02-08 23:45:00,24.8,19.5,30.32,NW,320,3.0,4.0,80,0.00,,,0.14,Wunderground v.1.15,2013-02-09 04:45:00,
2013-02-08 23:50:00,24.7,19.7,30.32,NW,320,3.0,3.0,81,0.00,,,0.14,Wunderground v.1.15,2013-02-09 04:50:00,
2013-02-08 23:56:00,24.4,19.4,30.32,NW,326,3.0,4.0,81,0.00,,,0.14,Wunderground v.1.15,2013-02-09 04:56:00,